カタログに戻る

FENGYUN 1C DEB

運用中PO
NORAD 33676·DEBRIS·🇨🇳 China

打ち上げ May 10, 1999 から Taiyuan Satellite Launch Center

Loading…

次のパス (今後24時間)

TLE

最新Source: Space-Track

元期: Sep 14, 2026, 09:32 UTC

1 33676U 99025DFM 26257.39727246  .00000176  00000-0  63952-4 0  9995
2 33676  99.0662 301.6045 0203182 343.3706  16.0879 14.35801788692665

AllMySatでFENGYUN 1C DEBをリアルタイム追跡

Download on the App Store